Tracking 28356 objects as of 7-Dec-2023
HD Live streaming from Space Station
objects crossing your sky now

COSMOS 1867 COOLANT

Track COSMOS 1867 COOLANT now!
10-day predictions


NORAD ID: 39645
Int'l Code: 1987-060N
Perigee: 777.6 km
Apogee: 804.0 km
Inclination: 65.0 °
Period: 100.5 minutes
Semi major axis: 7161 km
RCS: Unknown
Launch date: July 10, 1987
Source: Commonwealth of Independent States (former USSR) (CIS)
Launch site: TYURATAM MISSILE AND SPACE COMPLEX (TTMTR)

Note: This is SATELLITE DEBRIS
Your satellite tracking list
Your tracking list is empty




NASA's NSSDC Master Catalog

Two Line Element Set (TLE):
1 39645U 87060N   23341.28128702  .00000443  00000-0  20014-3 0  9992
2 39645  65.0132  84.5807 0018452 281.4289  78.4723 14.32413175505295
Source of the keplerian elements: AFSPC